Total_Precipitation_Accumulation
1.31 1.34 1.96 3.07 3.48 2.85 2.42 1.81 1.11 1.13 0.96 0.64 0.53 0.59 0.95 1.49 1.70 1.90 1.87 1.47 0.90 0.70 0.84 1.39 1.91 1.74 1.64 1.61 1.61 1.70 1.81 1.80 1.59 1.48 1.38 1.26 1.09 0.96 0.87 0.82 0.75 0.70 0.73 0.66 0.65 0.71 0.80 0.84 0.88
1.18 1.86 2.72 3.66 3.21 2.51 2.40 1.76 1.28 0.97 0.64 0.45 0.43 0.47 0.72 0.79 0.69 1.07 1.94 1.76 0.92 0.75 0.81 1.07 1.72 1.77 1.70 1.67 1.67 1.65 1.65 1.61 1.43 1.35 1.28 1.17 1.14 1.03 0.95 0.85 0.76 0.66 0.60 0.61 0.66 0.65 0.71 0.75 0.77
1.51 2.38 3.30 3.36 2.51 2.28 2.28 1.60 1.10 0.61 0.42 0.44 0.51 0.49 0.66 0.82 0.87 1.34 1.80 1.29 0.88 0.80 0.86 1.20 1.79 1.77 1.71 1.70 1.71 1.77 1.63 1.55 1.37 1.20 1.18 1.13 1.12 1.02 0.97 0.88 0.77 0.67 0.64 0.61 0.65 0.67 0.71 0.79 0.78
1.82 2.61 2.87 2.52 2.10 1.67 1.36 1.18 0.80 0.67 0.53 0.34 0.43 0.57 0.53 0.79 1.01 1.25 1.11 0.79 0.75 0.84 0.92 1.23 1.65 1.70 1.68 1.68 1.69 1.66 1.53 1.43 1.31 1.15 1.13 1.16 1.14 1.05 0.98 0.89 0.81 0.73 0.73 0.69 0.68 0.71 0.78 0.82 0.80
2.12 2.60 2.47 2.03 1.92 1.45 1.05 0.86 0.70 0.84 0.75 0.47 0.41 0.60 0.70 0.97 1.06 1.09 0.97 0.78 0.78 0.85 0.89 1.16 1.56 1.63 1.63 1.55 1.40 1.40 1.42 1.33 1.19 1.12 1.08 1.09 1.06 1.01 0.96 0.98 0.92 0.82 0.78 0.74 0.75 0.77 0.77 0.78 0.81
2.29 2.29 2.14 1.97 1.99 1.65 1.34 0.97 0.79 0.88 0.70 0.47 0.45 0.67 0.84 1.10 1.24 1.14 0.99 1.00 0.95 0.93 0.86 0.97 1.32 1.44 1.44 1.38 1.33 1.38 1.37 1.27 1.12 1.04 1.01 1.01 1.01 0.93 0.85 0.84 0.82 0.81 0.81 0.79 0.76 0.76 0.68 0.70 0.81
2.48 2.28 1.91 1.62 1.85 2.12 1.62 1.04 0.94 0.94 0.87 0.64 0.48 0.75 0.92 1.12 1.21 1.03 0.97 1.15 1.29 1.26 1.07 0.95 1.04 1.20 1.29 1.38 1.39 1.47 1.48 1.37 1.20 1.03 1.00 0.97 0.89 0.75 0.68 0.73 0.77 0.77 0.76 0.78 0.78 0.78 0.72 0.73 0.86
2.08 2.11 1.72 1.67 1.93 2.23 1.61 1.06 0.85 0.82 0.86 0.56 0.50 0.83 1.10 1.06 1.11 1.06 0.99 1.10 1.19 1.24 1.21 1.09 1.04 1.09 1.15 1.26 1.45 1.62 1.72 1.76 1.48 1.14 1.06 0.96 0.79 0.70 0.72 0.72 0.77 0.81 0.86 0.86 0.87 0.90 0.87 0.94 0.95
2.00 2.29 2.10 2.17 2.13 1.78 1.22 1.13 0.83 0.63 0.71 0.67 0.55 0.59 0.78 0.73 0.76 0.90 0.97 0.97 0.89 0.86 0.94 0.99 1.00 1.08 1.08 1.11 1.23 1.53 1.71 1.85 1.52 1.09 1.11 0.98 0.73 0.70 0.77 0.77 0.96 1.03 1.04 1.03 1.07 1.09 1.09 1.07 1.01
2.09 2.13 1.91 1.67 1.46 1.30 1.15 1.05 0.83 0.85 1.00 0.91 0.75 0.65 0.66 0.67 0.74 0.81 0.82 0.82 0.74 0.69 0.64 0.67 0.69 0.77 0.86 0.93 1.19 1.49 1.53 1.64 1.34 1.11 1.14 1.07 1.10 1.02 0.80 0.81 1.08 1.22 1.26 1.18 1.17 1.24 1.13 0.97 0.81
1.61 1.69 1.33 1.09 0.85 0.89 0.93 0.85 0.68 0.81 1.05 0.83 0.70 0.68 0.71 0.74 0.72 0.76 0.77 0.67 0.59 0.52 0.49 0.48 0.50 0.52 0.64 0.89 1.18 1.44 1.53 1.62 1.57 1.55 1.38 1.32 1.25 1.05 0.87 0.83 0.89 0.98 1.08 1.02 1.11 1.12 0.96 0.87 0.77
1.47 1.28 1.05 0.98 0.75 0.77 0.76 0.71 0.76 0.71 0.69 0.54 0.49 0.55 0.72 0.80 0.73 0.66 0.70 0.69 0.61 0.55 0.52 0.45 0.38 0.40 0.50 0.67 0.89 1.21 1.38 1.47 1.47 1.43 1.16 1.21 1.21 1.04 0.97 1.06 1.09 1.06 1.05 1.19 1.23 1.20 1.14 0.96 0.78
1.42 1.20 0.92 0.69 0.65 0.63 0.65 0.69 0.71 0.64 0.51 0.47 0.46 0.54 0.72 0.82 0.79 0.67 0.61 0.57 0.59 0.64 0.71 0.67 0.52 0.47 0.52 0.58 0.61 0.78 0.95 1.06 1.31 1.38 1.05 0.99 1.01 1.08 1.11 1.01 1.15 1.22 1.22 1.22 1.22 1.14 1.10 1.10 0.96
1.24 1.01 0.80 0.65 0.63 0.59 0.64 0.65 0.63 0.71 0.54 0.51 0.54 0.62 0.73 0.81 0.80 0.67 0.58 0.50 0.47 0.50 0.60 0.65 0.64 0.66 0.65 0.57 0.49 0.49 0.56 0.70 0.85 0.90 0.80 0.79 0.82 0.94 1.12 1.05 1.04 1.12 1.31 1.36 1.30 1.20 1.27 1.27 1.10
0.84 0.87 0.88 0.74 0.68 0.67 0.73 0.87 0.64 0.59 0.52 0.51 0.55 0.62 0.61 0.61 0.62 0.54 0.48 0.40 0.39 0.41 0.45 0.53 0.58 0.63 0.68 0.73 0.68 0.53 0.54 0.61 0.65 0.66 0.68 0.73 0.72 0.85 1.02 1.00 0.93 0.93 1.09 1.27 1.41 1.44 1.46 1.30 1.20
0.99 0.96 1.20 0.92 0.81 0.73 0.85 0.95 0.56 0.53 0.52 0.50 0.53 0.65 0.61 0.48 0.43 0.40 0.42 0.41 0.37 0.39 0.39 0.45 0.45 0.51 0.61 0.74 0.80 0.74 0.70 0.66 0.61 0.57 0.51 0.54 0.54 0.63 0.83 0.91 0.86 0.85 1.03 1.26 1.48 1.62 1.68 1.52 1.47
1.25 1.15 1.06 0.94 0.80 0.69 0.65 0.65 0.50 0.45 0.44 0.45 0.47 0.57 0.56 0.43 0.36 0.33 0.31 0.32 0.35 0.36 0.37 0.39 0.42 0.44 0.51 0.62 0.69 0.66 0.64 0.61 0.60 0.59 0.47 0.44 0.44 0.55 0.76 0.97 1.02 1.01 1.14 1.27 1.32 1.57 1.69 1.76 1.67
0.98 0.85 0.81 0.73 0.64 0.58 0.52 0.45 0.43 0.38 0.37 0.41 0.43 0.48 0.47 0.34 0.28 0.27 0.27 0.29 0.35 0.36 0.36 0.38 0.40 0.40 0.42 0.44 0.52 0.55 0.51 0.51 0.57 0.55 0.54 0.57 0.62 0.67 0.86 1.11 1.21 1.33 1.37 1.45 1.63 1.94 1.95 1.85 1.87
0.75 0.69 0.66 0.52 0.43 0.45 0.44 0.42 0.43 0.40 0.37 0.38 0.39 0.38 0.42 0.35 0.30 0.23 0.21 0.20 0.26 0.30 0.31 0.34 0.37 0.38 0.35 0.32 0.37 0.41 0.40 0.49 0.58 0.64 0.69 0.75 0.77 0.83 1.04 1.26 1.52 1.66 1.56 1.59 1.82 2.09 2.26 2.10 1.97
0.75 0.75 0.70 0.62 0.45 0.43 0.43 0.44 0.40 0.38 0.35 0.30 0.28 0.27 0.31 0.30 0.28 0.23 0.20 0.17 0.16 0.18 0.23 0.29 0.29 0.29 0.26 0.24 0.29 0.37 0.43 0.50 0.64 0.79 0.89 0.92 0.91 0.96 1.00 1.21 1.43 1.51 1.59 1.65 1.79 2.03 2.38 2.23 2.00
0.67 0.63 0.56 0.63 0.55 0.51 0.55 0.57 0.45 0.40 0.37 0.30 0.24 0.25 0.28 0.27 0.23 0.22 0.21 0.19 0.15 0.17 0.19 0.23 0.26 0.28 0.26 0.31 0.48 0.74 0.98 1.07 1.11 1.13 1.26 1.33 1.30 1.26 1.23 1.25 1.41 1.51 1.64 1.74 1.79 1.82 2.12 2.25 2.13
0.71 0.52 0.43 0.53 0.67 0.65 0.54 0.61 0.42 0.39 0.42 0.34 0.28 0.25 0.27 0.28 0.25 0.21 0.18 0.19 0.14 0.16 0.20 0.23 0.24 0.30 0.33 0.47 0.78 1.16 1.46 1.56 1.55 1.68 1.72 1.78 1.70 1.56 1.55 1.55 1.64 1.61 1.58 1.61 1.63 1.62 1.84 2.22 2.31
0.68 0.56 0.53 0.56 0.60 0.57 0.37 0.39 0.33 0.33 0.42 0.37 0.34 0.33 0.34 0.31 0.28 0.23 0.20 0.19 0.19 0.22 0.28 0.31 0.36 0.49 0.65 0.79 0.95 1.23 1.40 1.49 1.62 1.79 1.95 2.10 2.19 2.12 2.05 1.99 1.86 1.69 1.60 1.62 1.67 1.67 1.78 1.92 2.08
0.49 0.60 0.70 0.69 0.66 0.63 0.30 0.27 0.32 0.32 0.33 0.34 0.34 0.36 0.35 0.30 0.25 0.24 0.26 0.27 0.30 0.37 0.42 0.46 0.56 0.65 0.74 0.84 0.96 1.10 1.16 1.29 1.49 1.64 1.83 2.00 2.12 2.10 2.03 1.90 1.70 1.54 1.48 1.54 1.68 1.71 1.77 1.77 1.85
0.47 0.68 0.96 1.00 0.92 0.65 0.25 0.24 0.28 0.22 0.21 0.24 0.26 0.25 0.25 0.27 0.27 0.27 0.26 0.32 0.37 0.45 0.49 0.57 0.65 0.75 0.80 0.87 0.96 1.02 1.05 1.17 1.32 1.37 1.42 1.46 1.48 1.49 1.51 1.52 1.51 1.44 1.37 1.46 1.67 1.77 1.79 1.78 1.77
0.39 0.49 0.79 0.93 0.75 0.51 0.26 0.31 0.32 0.19 0.15 0.12 0.14 0.18 0.23 0.30 0.33 0.32 0.31 0.39 0.47 0.55 0.65 0.73 0.79 0.82 0.87 0.95 1.02 1.00 1.07 1.18 1.27 1.21 1.15 1.18 1.22 1.29 1.29 1.37 1.40 1.38 1.38 1.41 1.53 1.69 1.79 1.77 1.70
0.37 0.39 0.45 0.53 0.42 0.43 0.32 0.29 0.22 0.12 0.11 0.10 0.15 0.23 0.31 0.40 0.42 0.43 0.44 0.50 0.57 0.66 0.74 0.80 0.86 0.89 0.96 0.99 1.07 1.20 1.22 1.20 1.18 1.06 1.00 1.02 0.98 0.98 1.08 1.19 1.25 1.23 1.24 1.29 1.41 1.59 1.62 1.71 1.76
0.30 0.39 0.48 0.53 0.57 0.54 0.36 0.31 0.26 0.17 0.17 0.21 0.27 0.35 0.47 0.57 0.59 0.60 0.65 0.69 0.72 0.75 0.81 0.85 0.92 0.99 0.99 1.00 1.11 1.30 1.25 1.00 0.82 0.73 0.77 0.80 0.84 0.87 0.93 0.91 0.88 0.85 0.91 0.94 1.06 1.27 1.35 1.41 1.50
0.30 0.30 0.37 0.45 0.45 0.63 0.75 0.74 0.60 0.56 0.45 0.49 0.52 0.61 0.77 0.80 0.81 0.79 0.83 0.86 0.83 0.84 0.89 0.89 0.93 1.06 1.07 1.00 1.10 1.14 0.94 0.67 0.55 0.54 0.52 0.49 0.51 0.56 0.63 0.59 0.56 0.62 0.67 0.64 0.74 0.85 0.95 1.08 1.17
0.24 0.24 0.25 0.44 0.46 0.51 0.84 0.90 0.78 0.79 0.76 0.86 0.94 1.09 1.04 0.98 0.98 0.89 0.84 0.83 0.74 0.72 0.80 0.85 0.96 1.02 0.94 0.88 0.86 0.71 0.54 0.43 0.39 0.36 0.30 0.26 0.26 0.27 0.33 0.34 0.35 0.43 0.55 0.57 0.64 0.68 0.71 0.82 0.92